{"data":{"norad_id":61186,"epoch":"2026-09-18T14:50:49.932672Z","epoch_age_seconds":177066,"freshness":"STALE","line1":"1 61186U 24168B   26261.61863348 -.00000036  00000+0  00000+0 0  9997","line2":"2 61186  54.3872 298.9874 0004683 289.6844 249.2138  1.86230374 13526","mean_motion":1.86230374,"eccentricity":0.0004683,"inclination_deg":54.3872,"raan_deg":298.9874,"arg_perigee_deg":289.6844,"mean_anomaly_deg":249.2138,"bstar":0,"rev_number":1352,"period_min":773.23584175372,"perigee_km":21515.045602889,"apogee_km":21541.18259767,"semimajor_km":27906.251100279,"source":"CELESTRAK","updated_at":"2026-09-20T09:00:46.715822Z"}}